Accueil
METAR-TAF:

METAR-TAF

Aéroports :

Fairford, Angleterre

latitude: 51-41N, longitude: 001-47W, altitude: 87 m

Observation

Le bulletin a été fait il y a 26 minutes, à 14:56 UTC
Vent 8 kt de sud
Température 9°C
Humidité 81%
Pression 1017 hPa
Visibilité 10 km ou plus
Ciel clair

METAR: EGVA 171456Z AUTO 19008KT 9999 CLR 09/06 A3002 RMK AO2 SLP172 T00850061 55003 $

Heure: 15:22 (15:22 UTC)


TAF: absent

Observations et prévisions météorologiques de plus de 4000 aéroports (messages METAR et TAF).

Les stations disponibles sont représentées par des disques jaunes et rouges sur la carte.

Passer la souris dessus pour voir le nom de la station.

Cliquer dessus pour voir les observations et prévisions météorologiques.

Pour changer de carte: cliquez sur les boutons verts avec une croix noire pour zoomer, sur le bouton vert avec un tiret pour effectuer un zoom arrière, ou sur les flèches vertes pour les cartes adjacentes.


METAR-TAF: